This is the latest recevied weather packets stored in our database for station/object DB0WUN-13. If no packets are shown the sender has not sent any weather packets the latest 1 day(s).
| Time | Temp. | Humidity | Pressure | Rain* | Wind** | Luminosity | Snow |
|---|---|---|---|---|---|---|---|
| 1777978793 | 19.44° C | 60% | 1008.4 hPa | 0 mm | 0.89 m/s, 83° | 253 W/m² | - |
| 1777978733 | 19.44° C | 59% | 1008.4 hPa | 0 mm | 0.89 m/s, 19° | 262 W/m² | - |
| 1777978693 | 19.44° C | 58% | 1008.4 hPa | 0 mm | 1.34 m/s, 338° | 262 W/m² | - |
| 1777978652 | 19.44° C | 59% | 1008.4 hPa | 0 mm | 1.34 m/s, 333° | 258 W/m² | - |
| 1777978611 | 19.44° C | 58% | 1008.4 hPa | 0 mm | 1.34 m/s, 324° | 234 W/m² | - |
| 1777978567 | 20° C | 57% | 1008.4 hPa | 0 mm | 1.34 m/s, 332° | 220 W/m² | - |
| 1777978521 | 20° C | 59% | 1008.5 hPa | 0 mm | 1.34 m/s, 337° | 223 W/m² | - |
| 1777978326 | 20° C | 59% | 1008.4 hPa | 0 mm | 1.34 m/s, 18° | 236 W/m² | - |
| 1777978263 | 20° C | 59% | 1008.5 hPa | 0 mm | 1.34 m/s, 323° | 241 W/m² | - |
| 1777978202 | 20° C | 58% | 1008.5 hPa | 0 mm | 1.34 m/s, 332° | 244 W/m² | - |
| 1777978140 | 20° C | 58% | 1008.5 hPa | 0 mm | 1.34 m/s, 42° | 264 W/m² | - |
| 1777978084 | 20.56° C | 57% | 1008.4 hPa | 0 mm | 1.34 m/s, 40° | 276 W/m² | - |
| 1777978017 | 20.56° C | 58% | 1008.5 hPa | 0 mm | 1.34 m/s, 22° | 299 W/m² | - |
| 1777977956 | 20.56° C | 57% | 1008.5 hPa | 0 mm | 1.34 m/s, 60° | 726 W/m² | - |
| 1777977895 | 20.56° C | 56% | 1008.6 hPa | 0 mm | 1.34 m/s, 30° | 726 W/m² | - |
| 1777977836 | 20.56° C | 57% | 1008.5 hPa | 0 mm | 0.89 m/s, 22° | 773 W/m² | - |
| 1777977773 | 20.56° C | 56% | 1008.5 hPa | 0 mm | 0.89 m/s, 325° | 933 W/m² | - |
| 1777977708 | 21.11° C | 56% | 1008.5 hPa | 0 mm | 1.34 m/s, 338° | 1000 W/m² | - |
| 1777977650 | 21.11° C | 52% | 1008.5 hPa | 0 mm | 0.89 m/s, 316° | 1000 W/m² | - |
| 1777977587 | 21.11° C | 51% | 1008.4 hPa | 0 mm | 1.34 m/s, 216° | 993 W/m² | - |
| 1777977530 | 20.56° C | 51% | 1008.5 hPa | 0 mm | 1.34 m/s, 216° | 991 W/m² | - |
| 1777977469 | 20.56° C | 51% | 1008.5 hPa | 0 mm | 0.89 m/s, 216° | 963 W/m² | - |
| 1777977409 | 20.56° C | 50% | 1008.5 hPa | 0 mm | 0.89 m/s, 265° | 958 W/m² | - |
| 1777977343 | 20.56° C | 51% | 1008.6 hPa | 0 mm | 0.89 m/s, 302° | 940 W/m² | - |
| 1777977282 | 20.56° C | 52% | 1008.6 hPa | 0 mm | 0.89 m/s, 319° | 937 W/m² | - |
* Rain latest hour (hover to see other rain measurements)
** Current wind speed in m/s (hover to see current wind gust speed)